Location: Irma
(52.9170°N, 111.2330°W)
Time: 17:43:31
(UTC-06:00)

Amateur Radio Satellites - All Passes

Search period start: 31 October 2014 17:13
Search period end: 01 November 2014 17:13
Location: Irma, 52.9170°N, 111.2330°W

Satellite Date Start Highest point End Downlink Frequencies (MHz)
Time Altitude Azimuth
Uosat F 31 Oct 17:18:02 17:22:57 52° 259° (W) 17:27:55 435.120 FM
UOSAT-12 31 Oct 17:38:51 17:42:25 21° 354° (N) 17:46:00 437.025 FM, 437.400 FM
OPAL 31 Oct 17:42:34 17:45:35 16° 90° (E) 17:48:34 ?
AO-7 31 Oct 17:49:10 17:56:38 37° 265° (W) 18:04:10 29.400 - 29.500 MHz
HO-68 31 Oct 18:14:41 18:17:53 14° 31° (NNE) 18:21:05 435.675 MHz FM
Hamsat 31 Oct 18:21:04 18:25:15 75° 257° (WSW) 18:29:27 145.90 MHz
KITSAT 1 31 Oct 18:23:03 18:30:49 47° 30° (NNE) 18:38:33 435.175 FM
JAS-2 31 Oct 18:26:57 18:33:22 59° 261° (W) 18:40:40 435.800 - 435.900 CW/SSB, 435.910 FM
SO-50 31 Oct 18:37:54 18:42:26 40° 32° (NNE) 18:47:02 436.795 FM
Oscar 10/S400 31 Oct 18:46:23 19:09:01 40° 180° (S) 22:39:39 145.825 - 145.975 CW/USB, Beacon 145.810 USB
SO-67 31 Oct 19:01:20 19:04:35 41° 70° (ENE) 19:07:51 435.3500 MHz FM
UOSAT-12 31 Oct 19:20:06 19:24:02 25° 18° (NNE) 19:27:56 437.025 FM, 437.400 FM
OPAL 31 Oct 19:20:11 19:25:12 89° 290° (WNW) 19:30:09 ?
STRAND 1 31 Oct 19:38:17 19:42:47 29° 94° (E) 19:47:15 ?
RS-15 31 Oct 19:56:22 20:02:09 16° 94° (E) 20:07:54 29.354 - 29.394 USB, Beacon 29.352 USB
HO-68 31 Oct 19:57:15 20:03:44 39° 55° (NE) 20:10:15 435.675 MHz FM
JAS-2 31 Oct 20:17:09 20:20:15 13° 285° (WNW) 20:23:30 435.800 - 435.900 CW/SSB, 435.910 FM
SO-50 31 Oct 20:18:29 20:23:12 54° 233° (SW) 20:27:58 436.795 FM
KITSAT 1 31 Oct 20:18:44 20:26:48 74° 235° (SW) 20:34:50 435.175 FM
UKube-1 31 Oct 20:30:43 20:33:26 16° 54° (NE) 20:36:08 145.840 MHz, 145.915 MHz
SO-67 31 Oct 20:35:17 20:37:45 18° 269° (W) 20:40:13 435.3500 MHz FM
ZACube-1 31 Oct 20:43:17 20:43:22 10° 50° (NE) 20:43:27 437.345 MHz
OPAL 31 Oct 21:00:03 21:03:28 19° 310° (NW) 21:06:53 ?
UOSAT-12 31 Oct 21:00:16 21:05:01 64° 41° (NE) 21:09:41 437.025 FM, 437.400 FM
Oscar 11 31 Oct 21:04:15 21:07:50 26° 62° (ENE) 21:11:25 145.825 FM, Beacon 2401.500 USB
STRAND 1 31 Oct 21:17:14 21:22:14 51° 293° (WNW) 21:27:12 ?
FUNcube-1 31 Oct 21:22:24 21:25:39 20° 59° (ENE) 21:28:53 145.950 - 145.970 MHz USB
HO-68 31 Oct 21:44:05 21:51:11 63° 257° (WSW) 21:58:21 435.675 MHz FM
RS-15 31 Oct 22:01:18 22:11:52 59° 119° (ESE) 22:22:29 29.354 - 29.394 USB, Beacon 29.352 USB
SO-50 31 Oct 22:02:11 22:02:47 10° 253° (WSW) 22:03:24 436.795 FM
UKube-1 31 Oct 22:04:40 22:09:02 87° 253° (WSW) 22:13:27 145.840 MHz, 145.915 MHz
ZACube-1 31 Oct 22:14:29 22:18:51 53° 70° (ENE) 22:23:09 437.345 MHz
KITSAT 1 31 Oct 22:15:20 22:20:56 21° 257° (WSW) 22:26:31 435.175 FM
Oscar 11 31 Oct 22:39:40 22:43:50 46° 261° (W) 22:48:00 145.825 FM, Beacon 2401.500 USB
UOSAT-12 31 Oct 22:40:51 22:44:53 28° 242° (WSW) 22:48:51 437.025 FM, 437.400 FM
FUNcube-1 31 Oct 22:57:10 23:01:39 67° 258° (WSW) 23:06:03 145.950 - 145.970 MHz USB
STRAND 1 31 Oct 22:58:25 23:00:21 12° 314° (NW) 23:02:17 ?
MaSat-1 31 Oct 22:59:11 23:02:45 45° 119° (ESE) 23:05:57 437.345 MHz
HO-68 31 Oct 23:36:45 23:40:25 14° 279° (W) 23:44:07 435.675 MHz FM
UKube-1 31 Oct 23:43:59 23:45:55 13° 274° (W) 23:47:52 145.840 MHz, 145.915 MHz
ZACube-1 31 Oct 23:51:57 23:55:32 23° 268° (W) 23:59:04 437.345 MHz
RS-15 01 Nov 00:13:27 00:24:17 64° 327° (NNW) 00:35:18 29.354 - 29.394 USB, Beacon 29.352 USB
MaSat-1 01 Nov 00:35:21 00:38:15 23° 315° (NW) 00:40:55 437.345 MHz
Sapphire 01 Nov 01:40:58 01:41:40 10° 101° (E) 01:42:23 437.095 MHz 1200 baud AX-25 AFSK
AO-Echo 01 Nov 01:51:24 01:52:38 11° 81° (E) 01:53:51 ?
PCSat 01 Nov 01:59:35 02:02:53 17° 106° (ESE) 02:06:12 145.825 MHz
JAS-1B 01 Nov 02:04:14 02:10:16 30° 93° (E) 02:17:12 435.800 - 435.900 CW/SSB
Oscar 19 01 Nov 02:10:48 02:15:00 25° 92° (E) 02:19:11 437.125 CW, 437.150 USB
RS-15 01 Nov 02:28:30 02:38:54 45° 359° (N) 02:49:34 29.354 - 29.394 USB, Beacon 29.352 USB
AO-27 01 Nov 02:48:42 02:52:54 24° 91° (E) 02:57:03 436.795 MHz FM
Oscar 16 01 Nov 02:57:32 03:02:37 58° 101° (ESE) 03:07:39 437.025 USB, Beacon 2401.1428
Gurwin Techsat 1B 01 Nov 03:07:51 03:11:47 20° 89° (E) 03:15:41 435.225 FM
TMSAT-1 01 Nov 03:14:02 03:17:35 18° 87° (E) 03:21:07 436.925 FM
Sapphire 01 Nov 03:18:40 03:23:55 54° 121° (ESE) 03:29:13 437.095 MHz 1200 baud AX-25 AFSK
OPAL 01 Nov 03:27:08 03:29:34 14° 45° (NE) 03:31:59 ?
AO-Echo 01 Nov 03:27:13 03:32:31 60° 101° (E) 03:37:45 ?
Uribyol 2 01 Nov 03:31:39 03:36:46 51° 100° (E) 03:41:48 436.500 FM
ITAMSAT 1 01 Nov 03:39:46 03:44:56 56° 101° (E) 03:50:03 435.822 SSB
PCSat 01 Nov 03:40:04 03:45:29 79° 126° (SE) 03:50:57 145.825 MHz
Oscar 19 01 Nov 03:49:41 03:54:44 59° 291° (WNW) 03:59:46 437.125 CW, 437.150 USB
AO-7 01 Nov 03:51:42 03:55:42 14° 80° (E) 03:59:41 29.400 - 29.500 MHz
JAS-1B 01 Nov 03:54:36 04:01:21 74° 291° (WNW) 04:09:28 435.800 - 435.900 CW/SSB
AO-27 01 Nov 04:27:40 04:32:52 65° 291° (WNW) 04:38:02 436.795 MHz FM
Oscar 16 01 Nov 04:37:23 04:41:42 28° 301° (WNW) 04:45:59 437.025 USB, Beacon 2401.1428
RS-15 01 Nov 04:42:38 04:53:35 62° 32° (NNE) 05:04:55 29.354 - 29.394 USB, Beacon 29.352 USB
Gurwin Techsat 1B 01 Nov 04:47:01 04:52:21 76° 289° (WNW) 04:57:40 435.225 FM
TMSAT-1 01 Nov 04:52:53 04:58:14 86° 287° (WNW) 05:03:33 436.925 FM
Sapphire 01 Nov 05:02:26 05:07:34 41° 323° (NW) 05:12:43 437.095 MHz 1200 baud AX-25 AFSK
OPAL 01 Nov 05:02:33 05:07:31 57° 65° (ENE) 05:12:28 ?
AO-Echo 01 Nov 05:06:28 05:10:59 29° 301° (WNW) 05:15:28 ?
Uribyol 2 01 Nov 05:11:30 05:16:03 31° 300° (WNW) 05:20:34 436.500 FM
Uosat F 01 Nov 05:19:36 05:24:06 31° 95° (E) 05:28:33 435.120 FM
ITAMSAT 1 01 Nov 05:19:43 05:24:11 29° 301° (WNW) 05:28:37 435.822 SSB
STRAND 1 01 Nov 05:23:35 05:26:46 17° 51° (NE) 05:29:57 ?
PCSat 01 Nov 05:24:36 05:29:27 32° 329° (NNW) 05:34:20 145.825 MHz
JAS-2 01 Nov 05:29:46 05:35:49 24° 84° (E) 05:41:47 435.800 - 435.900 CW/SSB, 435.910 FM
Oscar 19 01 Nov 05:30:42 05:33:07 14° 312° (NW) 05:35:32 437.125 CW, 437.150 USB
AO-7 01 Nov 05:42:15 05:50:28 57° 103° (ESE) 05:58:38 29.400 - 29.500 MHz
JAS-1B 01 Nov 05:46:23 05:51:12 22° 311° (NW) 05:56:34 435.800 - 435.900 CW/SSB
Hamsat 01 Nov 06:01:55 06:04:01 13° 86° (E) 06:06:07 145.90 MHz
AO-27 01 Nov 06:08:37 06:11:29 15° 312° (NW) 06:14:20 436.795 MHz FM
Gurwin Techsat 1B 01 Nov 06:28:10 06:31:32 17° 309° (NW) 06:34:54 435.225 FM
TMSAT-1 01 Nov 06:33:49 06:37:29 19° 307° (NW) 06:41:08 436.925 FM
Saudisat 1A 01 Nov 06:35:53 06:40:00 40° 124° (ESE) 06:44:08 436.775 MHz
OPAL 01 Nov 06:42:30 06:46:44 26° 265° (W) 06:50:58 ?
Sapphire 01 Nov 06:48:27 06:52:25 20° 347° (NNW) 06:56:24 437.095 MHz 1200 baud AX-25 AFSK
RS-15 01 Nov 06:55:22 07:06:12 62° 239° (WSW) 07:17:29 29.354 - 29.394 USB, Beacon 29.352 USB
Uosat F 01 Nov 06:58:14 07:03:05 47° 294° (WNW) 07:07:54 435.120 FM
STRAND 1 01 Nov 07:00:02 07:05:11 76° 71° (ENE) 07:10:21 ?
MaSat-1 01 Nov 07:02:36 07:05:09 40° 50° (NE) 07:07:29 437.345 MHz
PCSat 01 Nov 07:10:44 07:14:32 19° 354° (N) 07:18:19 145.825 MHz
JAS-2 01 Nov 07:14:00 07:21:55 84° 105° (ESE) 07:29:41 435.800 - 435.900 CW/SSB, 435.910 FM
AO-7 01 Nov 07:35:21 07:43:11 48° 305° (NW) 07:51:00 29.400 - 29.500 MHz
Hamsat 01 Nov 07:36:20 07:40:34 84° 286° (WNW) 07:44:49 145.90 MHz
SO-67 01 Nov 07:51:39 07:54:23 22° 93° (E) 07:57:06 435.3500 MHz FM
Saudisat 1A 01 Nov 08:15:21 08:19:35 44° 325° (NW) 08:23:50 436.775 MHz
Sapphire 01 Nov 08:33:47 08:37:49 20° 14° (NNE) 08:41:50 437.095 MHz 1200 baud AX-25 AFSK
MaSat-1 01 Nov 08:39:21 08:40:05 11° 252° (WSW) 08:40:48 437.345 MHz
Uosat F 01 Nov 08:39:23 08:40:45 11° 315° (NW) 08:42:07 435.120 FM
STRAND 1 01 Nov 08:41:14 08:44:57 20° 271° (W) 08:48:43 ?
PCSat 01 Nov 08:55:33 08:59:51 23° 20° (NNE) 09:04:09 145.825 MHz
JAS-2 01 Nov 08:59:35 09:06:14 32° 307° (NW) 09:12:53 435.800 - 435.900 CW/SSB, 435.910 FM
HO-68 01 Nov 09:05:48 09:10:55 20° 86° (E) 09:15:58 435.675 MHz FM
RS-15 01 Nov 09:09:28 09:16:13 19° 264° (W) 09:23:08 29.354 - 29.394 USB, Beacon 29.352 USB
Hamsat 01 Nov 09:13:43 09:15:53 14° 305° (NW) 09:18:03 145.90 MHz
SO-67 01 Nov 09:24:17 09:27:28 34° 292° (WNW) 09:30:37 435.3500 MHz FM
AO-7 01 Nov 09:28:52 09:34:07 19° 330° (NNW) 09:39:22 29.400 - 29.500 MHz
UKube-1 01 Nov 09:49:14 09:50:15 11° 85° (E) 09:51:17 145.840 MHz, 145.915 MHz
Saudisat 1A 01 Nov 09:56:51 10:00:10 20° 348° (NNW) 10:03:29 436.775 MHz
Sapphire 01 Nov 10:17:26 10:22:38 43° 38° (NE) 10:27:48 437.095 MHz 1200 baud AX-25 AFSK
Oscar 11 01 Nov 10:21:28 10:24:49 22° 91° (E) 10:28:09 145.825 FM, Beacon 2401.500 USB
PCSat 01 Nov 10:39:01 10:44:24 57° 44° (NE) 10:49:45 145.825 MHz
FUNcube-1 01 Nov 10:41:17 10:43:50 16° 88° (E) 10:46:21 145.950 - 145.970 MHz USB
SO-50 01 Nov 10:42:11 10:43:36 11° 108° (ESE) 10:45:02 436.795 FM
JAS-2 01 Nov 10:46:29 10:49:01 12° 330° (NNW) 10:51:35 435.800 - 435.900 CW/SSB, 435.910 FM
HO-68 01 Nov 10:52:30 10:59:45 81° 108° (ESE) 11:06:58 435.675 MHz FM
KITSAT 1 01 Nov 10:54:04 11:01:03 34° 110° (ESE) 11:08:03 435.175 FM
ISS 01 Nov 11:01:19 11:03:49 20° 146° (SSE) 11:06:19 145.800 FM
AO-7 01 Nov 11:21:24 11:23:43 11° 357° (N) 11:26:03 29.400 - 29.500 MHz
UKube-1 01 Nov 11:22:51 11:27:15 75° 104° (ESE) 11:31:36 145.840 MHz, 145.915 MHz
ZACube-1 01 Nov 11:33:56 11:38:01 46° 99° (E) 11:42:02 437.345 MHz
Saudisat 1A 01 Nov 11:37:51 11:41:10 20° 12° (NNE) 11:44:29 436.775 MHz
Oscar 11 01 Nov 11:57:06 12:01:19 53° 291° (WNW) 12:05:30 145.825 FM, Beacon 2401.500 USB
Oscar 19 01 Nov 11:57:24 12:00:05 14° 49° (NE) 12:02:46 437.125 CW, 437.150 USB
Sapphire 01 Nov 12:00:57 12:06:13 51° 240° (WSW) 12:11:27 437.095 MHz 1200 baud AX-25 AFSK
FUNcube-1 01 Nov 12:16:32 12:20:45 71° 287° (WNW) 12:24:53 145.950 - 145.970 MHz USB
SO-50 01 Nov 12:18:43 12:23:13 63° 128° (SE) 12:27:52 436.795 FM
PCSat 01 Nov 12:22:45 12:27:38 34° 245° (WSW) 12:32:28 145.825 MHz
AO-27 01 Nov 12:36:21 12:39:09 15° 48° (NE) 12:41:58 436.795 MHz FM
ISS 01 Nov 12:36:48 12:40:04 55° 166° (SSE) 12:43:21 145.800 FM
HO-68 01 Nov 12:40:48 12:46:52 31° 310° (NW) 12:52:55 435.675 MHz FM
Oscar 16 01 Nov 12:42:27 12:46:48 29° 59° (ENE) 12:51:10 437.025 USB, Beacon 2401.1428
KITSAT 1 01 Nov 12:47:43 12:55:50 80° 313° (NW) 13:03:59 435.175 FM
UOSAT-12 01 Nov 12:57:45 13:01:21 22° 116° (ESE) 13:04:59 437.025 FM, 437.400 FM
JAS-1B 01 Nov 12:57:48 13:02:58 37° 59° (ENE) 13:08:23 435.800 - 435.900 CW/SSB
Gurwin Techsat 1B 01 Nov 12:58:30 13:00:54 13° 46° (NE) 13:03:17 435.225 FM
UKube-1 01 Nov 12:59:57 13:02:57 18° 304° (NW) 13:05:57 145.840 MHz, 145.915 MHz
TMSAT-1 01 Nov 13:04:54 13:06:40 12° 45° (NE) 13:08:25 436.925 FM
AO-7 01 Nov 13:08:37 13:13:12 16° 25° (NNE) 13:17:48 29.400 - 29.500 MHz
AO-Echo 01 Nov 13:08:40 13:12:52 27° 58° (ENE) 13:17:11 ?
ZACube-1 01 Nov 13:10:47 13:14:13 24° 299° (WNW) 13:17:36 437.345 MHz
Uribyol 2 01 Nov 13:17:27 13:21:48 27° 58° (ENE) 13:26:10 436.500 FM
Saudisat 1A 01 Nov 13:17:29 13:21:45 44° 35° (NE) 13:26:00 436.775 MHz
ITAMSAT 1 01 Nov 13:25:33 13:30:01 30° 59° (ENE) 13:34:31 435.822 SSB
Oscar 19 01 Nov 13:33:28 13:38:32 64° 70° (ENE) 13:43:37 437.125 CW, 437.150 USB
FUNcube-1 01 Nov 13:54:46 13:56:22 12° 308° (NW) 13:57:58 145.950 - 145.970 MHz USB
SO-50 01 Nov 13:59:50 14:04:05 35° 331° (NNW) 14:08:28 436.795 FM
AO-27 01 Nov 14:12:35 14:17:45 64° 69° (ENE) 14:22:57 436.795 MHz FM
ISS 01 Nov 14:13:19 14:16:38 70° 186° (S) 14:19:58 145.800 FM
Oscar 16 01 Nov 14:20:51 14:25:55 56° 259° (W) 14:30:59 437.025 USB, Beacon 2401.1428
HO-68 01 Nov 14:30:28 14:32:25 11° 334° (NNW) 14:34:22 435.675 MHz FM
Gurwin Techsat 1B 01 Nov 14:34:38 14:39:49 55° 67° (ENE) 14:45:01 435.225 FM
UOSAT-12 01 Nov 14:36:20 14:41:02 77° 316° (NW) 14:45:49 437.025 FM, 437.400 FM
TMSAT-1 01 Nov 14:40:21 14:45:25 48° 66° (ENE) 14:50:31 436.925 FM
KITSAT 1 01 Nov 14:44:57 14:52:24 38° 340° (NNW) 14:59:53 435.175 FM
AO-Echo 01 Nov 14:46:15 14:51:16 62° 259° (WSW) 14:56:29 ?
JAS-1B 01 Nov 14:48:18 14:53:41 43° 263° (W) 14:59:18 435.800 - 435.900 CW/SSB
Uribyol 2 01 Nov 14:55:47 15:00:58 61° 258° (WSW) 15:06:10 436.500 FM
AO-7 01 Nov 14:56:24 15:03:50 39° 50° (NE) 15:11:19 29.400 - 29.500 MHz
Saudisat 1A 01 Nov 14:57:10 15:01:20 41° 236° (SW) 15:05:29 436.775 MHz
Uosat F 01 Nov 15:02:29 15:05:39 17° 51° (NE) 15:08:50 435.120 FM
ITAMSAT 1 01 Nov 15:04:08 15:09:16 56° 259° (W) 15:14:27 435.822 SSB
Oscar 19 01 Nov 15:14:17 15:18:20 23° 269° (W) 15:22:24 437.125 CW, 437.150 USB
SO-50 01 Nov 15:42:22 15:45:54 21° 355° (N) 15:49:30 436.795 FM
JAS-2 01 Nov 15:49:27 15:54:31 22° 45° (NE) 15:59:56 435.800 - 435.900 CW/SSB, 435.910 FM
ISS 01 Nov 15:50:02 15:53:05 33° 205° (SSW) 15:56:08 145.800 FM
AO-27 01 Nov 15:53:29 15:57:42 24° 269° (W) 16:01:57 436.795 MHz FM
Gurwin Techsat 1B 01 Nov 16:15:33 16:20:06 29° 267° (W) 16:24:41 435.225 FM
UOSAT-12 01 Nov 16:17:51 16:21:53 27° 338° (NNW) 16:25:57 437.025 FM, 437.400 FM
TMSAT-1 01 Nov 16:20:47 16:25:32 33° 266° (W) 16:30:20 436.925 FM
AO-Echo 01 Nov 16:29:58 16:31:10 11° 279° (W) 16:32:23 ?
Uosat F 01 Nov 16:38:40 16:43:43 79° 72° (ENE) 16:48:48 435.120 FM
Uribyol 2 01 Nov 16:40:26 16:41:33 11° 278° (W) 16:42:40 436.500 FM
KITSAT 1 01 Nov 16:42:52 16:50:04 33° 9° (N) 16:57:15 435.175 FM
AO-7 01 Nov 16:47:57 16:56:13 71° 253° (WSW) 17:04:33 29.400 - 29.500 MHz
Hamsat 01 Nov 17:00:43 17:03:54 21° 60° (ENE) 17:07:05 145.90 MHz
